STARLINK-2273 (47993 NORAD) Tracking and Keplerian Element Data

This shows tracking and keplerian element data for the satellite.

Feedback or suggestion? Click here.




ElementValue
Catalog47993
NameSTARLINK-2273
Epoch Orbit198
Epoch Day173.91668981
Epoch Year2021
RAAN114.3064
Inclination53.0457
Eccentricity0.0002088
Argument of Perigee27.4224
Mean Anonmoly118.11
Mean Motion15.73204424
Decay Rate0.00013606
L11 47993U 21024S 21173.91668981 .00013606 00000-0 10117-3 0 9992
L22 47993 53.0457 114.3064 0002088 27.4224 118.1100 15.73204424 1988

Live tracking and technical data element details for STARLINK-2273 (NORAD 47993). STARLINK-2273 can be tracked NOW for your location showing map with azimuth and elevation plus other details from your city location.

Track the satellite on the map from your city or location and see movement details for azimuth, elevation, latitude, longitude, range, height, and movement on the map or in text.







IsCatalogInMostPopularTable: catalog: 47993, numindb: 39
Update: records affected: 1



GetName: 47993 STARLINK-2273

Hit Count: updated at: Thu, 24 Jun 2021 04:18:47 GMT